Погода в Новых Горках

Россия / Ивановская область     56°43′41″N   41°03′28″E
темп.,
°C
ветер,
м/с
пор.,
м/с
влажн.,
%
обл.,
%
осадки,
мм/ч
давл.,
гПа
погр.,
м
18 апреля, вс
вс1800:00+5всв312760 0.0 1024371
03:00+4всв312850 0.0 1024342
06:00+3св411840 0.0 1024326
09:00+9всв510570 0.0 1023925
12:00+12всв68445 0.0 10231606
15:00+13всв674182 0.0 10232090
18:00+10всв6957100 0.0 10241074
21:00+6всв51283100 0.0 1026627
19 апреля, пн
пн1900:00+4всв51183100 0.0 1027624
03:00+3всв41175100 0.0 1027509
06:00+2всв51169100 0.0 1027524
09:00+4всв5958100 0.0 1028683
12:00+7в6850100 0.0 10281247
15:00+8в6842100 0.0 10271721
18:00+7всв5943100 0.0 10271480
21:00+4всв51148100 0.0 1028741
20 апреля, вт
вт2000:00+3в51153100 0.0 1028910
03:00+3в51156100 0.0 1027768
06:00+2в5126199 0.0 1027704
09:00+4вюв51058100 0.0 1027740
12:00+9вюв61055100 0.0 10261326
15:00+9вюв5960100 0.0 10251301
18:00+10вюв6125169 0.0 10221497
21:00+7в61351100 0.0 10211031
21 апреля, ср
ср2100:00+5вюв71548100 0.0 1018932
03:00+5вюв81752100 0.1 10151124
06:00+2вюв71896100 2.1 1012983
09:00+3вюв71688100 3.0 1011959
12:00+4юв71690100 0.4 10101043
15:00+6юв71689100 1.0 10091115
18:00+6юв81791100 0.4 10081225
21:00+6ю61382100 0.9 10111335
22 апреля, чт
чт2200:00+6ю61480100 0.1 10121450
03:00+5ююз61477100 0.1 10141520
06:00+5ююз4988100 0.2 1016927
09:00+6юз51181100 0.4 10181299
12:00+8юз497199 0.1 10201281
15:00+11зюз465395 0.2 10211522
18:00+10ююз256192 0.1 1022158
21:00+7ю237895 0.1 102469